| time (UTC) | temp F | wind direction | speed MPH | gust MPH | rain 1hr in | rain 24hr in | rain mn in | humidity % | barometer mb |
| 20260905202525 | 90 | 286 | 7.0 | 12.0 | 0.00 | 0.00 | 0.00 | 69 | 1011.2 |
| 20260905202004 | 90 | 281 | 7.0 | 12.0 | 0.00 | 0.00 | 0.00 | 68 | 1011.2 |
| 20260905201503 | 90 | 289 | 7.0 | 12.0 | 0.00 | 0.00 | 0.00 | 67 | 1011.2 |
| 20260905201003 | 90 | 289 | 7.0 | 15.0 | 0.00 | 0.00 | 0.00 | 70 | 1011.2 |
| 20260905200504 | 90 | 283 | 7.0 | 15.0 | 0.00 | 0.00 | 0.00 | 67 | 1011.4 |
| 20260905200004 | 90 | 277 | 8.0 | 13.0 | 0.00 | 0.00 | 0.00 | 69 | 1011.5 |
| 20260905195504 | 89 | 274 | 8.0 | 13.0 | 0.00 | 0.00 | 0.00 | 69 | 1011.5 |
| 20260905195025 | 89 | 274 | 8.0 | 14.0 | 0.00 | 0.00 | 0.00 | 69 | 1011.6 |
| 20260905194504 | 90 | 276 | 7.0 | 14.0 | 0.00 | 0.00 | 0.00 | 69 | 1011.7 |
| 20260905194003 | 90 | 275 | 6.0 | 12.0 | 0.00 | 0.00 | 0.00 | 70 | 1011.6 |
| 20260905193503 | 90 | 273 | 7.0 | 12.0 | 0.00 | 0.00 | 0.00 | 71 | 1011.7 |
| 20260905193025 | 90 | 277 | 7.0 | 11.0 | 0.00 | 0.00 | 0.00 | 70 | 1011.9 |
| 20260905192504 | 90 | 278 | 7.0 | 14.0 | 0.00 | 0.00 | 0.00 | 68 | 1011.9 |
| 20260905192003 | 90 | 276 | 6.0 | 14.0 | 0.00 | 0.00 | 0.00 | 68 | 1012.0 |
| 20260905191504 | 89 | 277 | 7.0 | 13.0 | 0.00 | 0.00 | 0.00 | 69 | 1012.0 |
| 20260905191003 | 90 | 277 | 7.0 | 11.0 | 0.00 | 0.00 | 0.00 | 68 | 1012.1 |
| 20260905190503 | 90 | 274 | 7.0 | 12.0 | 0.00 | 0.00 | 0.00 | 68 | 1012.1 |
| 20260905190004 | 90 | 274 | 6.0 | 12.0 | 0.00 | 0.00 | 0.00 | 68 | 1012.1 |
| 20260905185503 | 90 | 275 | 6.0 | 11.0 | 0.00 | 0.00 | 0.00 | 66 | 1012.2 |
| 20260905185024 | 90 | 273 | 6.0 | 11.0 | 0.00 | 0.00 | 0.00 | 68 | 1012.2 |
| 20260905184503 | 90 | 271 | 5.0 | 11.0 | 0.00 | 0.00 | 0.00 | 68 | 1012.2 |
| 20260905184004 | 90 | 274 | 6.0 | 12.0 | 0.00 | 0.00 | 0.00 | 67 | 1012.3 |
| 20260905183504 | 89 | 274 | 7.0 | 12.0 | 0.00 | 0.00 | 0.00 | 68 | 1012.3 |
| 20260905183004 | 90 | 270 | 6.0 | 11.0 | 0.00 | 0.00 | 0.00 | 70 | 1012.2 |
| 20260905182524 | 90 | 273 | 7.0 | 12.0 | 0.00 | 0.00 | 0.00 | 67 | 1012.2 |
| 20260905182004 | 90 | 282 | 8.0 | 12.0 | 0.00 | 0.00 | 0.00 | 69 | 1012.3 |
| 20260905181504 | 90 | 281 | 6.0 | 12.0 | 0.00 | 0.00 | 0.00 | 69 | 1012.3 |
| 20260905181004 | 90 | 269 | 5.0 | 10.0 | 0.00 | 0.00 | 0.00 | 70 | 1012.3 |
| 20260905180525 | 90 | 273 | 5.0 | 10.0 | 0.00 | 0.00 | 0.00 | 69 | 1012.4 |
| 20260905180004 | 90 | 276 | 5.0 | 10.0 | 0.00 | 0.00 | 0.00 | 69 | 1012.4 |
| 20260905175504 | 89 | 276 | 6.0 | 10.0 | 0.00 | 0.00 | 0.00 | 71 | 1012.6 |
| 20260905175004 | 90 | 278 | 6.0 | 13.0 | 0.00 | 0.00 | 0.00 | 70 | 1012.6 |
| 20260905174504 | 90 | 277 | 5.0 | 13.0 | 0.00 | 0.00 | 0.00 | 71 | 1012.6 |
| 20260905174025 | 90 | 277 | 5.0 | 12.0 | 0.00 | 0.00 | 0.00 | 69 | 1012.6 |
| 20260905173503 | 90 | 280 | 6.0 | 11.0 | 0.00 | 0.00 | 0.00 | 70 | 1012.7 |
| 20260905173024 | 90 | 279 | 7.0 | 11.0 | 0.00 | 0.00 | 0.00 | 70 | 1012.8 |
| 20260905172503 | 89 | 275 | 6.0 | 12.0 | 0.00 | 0.00 | 0.00 | 70 | 1012.9 |
| 20260905172004 | 90 | 277 | 6.0 | 12.0 | 0.00 | 0.00 | 0.00 | 70 | 1013.0 |
| 20260905171503 | 89 | 281 | 6.0 | 11.0 | 0.00 | 0.00 | 0.00 | 72 | 1013.2 |
| 20260905171004 | 89 | 275 | 5.0 | 11.0 | 0.00 | 0.00 | 0.00 | 72 | 1013.2 |
| 20260905170504 | 89 | 272 | 5.0 | 11.0 | 0.00 | 0.00 | 0.00 | 71 | 1013.3 |
| 20260905170004 | 89 | 277 | 5.0 | 9.0 | 0.00 | 0.00 | 0.00 | 70 | 1013.3 |
| 20260905165504 | 89 | 282 | 5.0 | 9.0 | 0.00 | 0.00 | 0.00 | 70 | 1013.3 |
| 20260905165004 | 90 | 282 | 4.0 | 9.0 | 0.00 | 0.00 | 0.00 | 70 | 1013.3 |
| 20260905164504 | 89 | 276 | 4.0 | 8.0 | 0.00 | 0.00 | 0.00 | 73 | 1013.3 |
| 20260905164004 | 89 | 277 | 4.0 | 8.0 | 0.00 | 0.00 | 0.00 | 72 | 1013.4 |
| 20260905163503 | 89 | 283 | 4.0 | 10.0 | 0.00 | 0.00 | 0.00 | 72 | 1013.5 |
| 20260905163004 | 90 | 277 | 3.0 | 10.0 | 0.00 | 0.00 | 0.00 | 70 | 1013.5 |
| 20260905162503 | 89 | 272 | 3.0 | 8.0 | 0.00 | 0.00 | 0.00 | 72 | 1013.5 |
| 20260905162004 | 89 | 272 | 4.0 | 9.0 | 0.00 | 0.00 | 0.00 | 71 | 1013.6 |
| 20260905161503 | 89 | 276 | 3.0 | 9.0 | 0.00 | 0.00 | 0.00 | 72 | 1013.6 |
| 20260905161004 | 90 | 277 | 2.0 | 9.0 | 0.00 | 0.00 | 0.00 | 74 | 1013.6 |
| 20260905160503 | 90 | 268 | 2.0 | 9.0 | 0.00 | 0.00 | 0.00 | 73 | 1013.6 |
| 20260905160003 | 90 | 257 | 2.0 | 7.0 | 0.00 | 0.00 | 0.00 | 72 | 1013.7 |
| 20260905155504 | 90 | 261 | 2.0 | 6.0 | 0.00 | 0.00 | 0.00 | 72 | 1013.8 |
| 20260905155004 | 90 | 271 | 3.0 | 8.0 | 0.00 | 0.00 | 0.00 | 74 | 1013.8 |
| 20260905154504 | 88 | 274 | 4.0 | 8.0 | 0.00 | 0.00 | 0.00 | 76 | 1013.7 |
| 20260905154004 | 89 | 274 | 3.0 | 7.0 | 0.00 | 0.00 | 0.00 | 73 | 1013.7 |
| 20260905153504 | 89 | 271 | 2.0 | 8.0 | 0.00 | 0.00 | 0.00 | 72 | 1013.7 |
| 20260905153004 | 90 | 263 | 2.0 | 8.0 | 0.00 | 0.00 | 0.00 | 70 | 1013.7 |
| 20260905152504 | 91 | 269 | 2.0 | 8.0 | 0.00 | 0.00 | 0.00 | 72 | 1013.7 |
| 20260905152025 | 89 | 266 | 3.0 | 8.0 | 0.00 | 0.00 | 0.00 | 72 | 1013.7 |
| 20260905151504 | 90 | 247 | 1.0 | 6.0 | 0.00 | 0.00 | 0.00 | 70 | 1013.7 |
| 20260905151024 | 91 | 250 | 1.0 | 6.0 | 0.00 | 0.00 | 0.00 | 68 | 1013.7 |
| 20260905150525 | 90 | 241 | 1.0 | 6.0 | 0.00 | 0.00 | 0.00 | 70 | 1013.7 |
| 20260905150004 | 90 | 227 | 1.0 | 6.0 | 0.00 | 0.00 | 0.00 | 69 | 1013.7 |
| 20260905145504 | 91 | 223 | 1.0 | 6.0 | 0.00 | 0.00 | 0.00 | 69 | 1013.7 |
| 20260905145003 | 91 | 240 | 2.0 | 6.0 | 0.00 | 0.00 | 0.00 | 70 | 1013.7 |
| 20260905144525 | 90 | 271 | 2.0 | 5.0 | 0.00 | 0.00 | 0.00 | 71 | 1013.7 |
| 20260905144004 | 90 | 267 | 2.0 | 5.0 | 0.00 | 0.00 | 0.00 | 72 | 1013.7 |
| 20260905143525 | 90 | 269 | 2.0 | 5.0 | 0.00 | 0.00 | 0.00 | 72 | 1013.7 |
| 20260905143003 | 89 | 271 | 1.0 | 5.0 | 0.00 | 0.00 | 0.00 | 70 | 1013.7 |
| 20260905142505 | 89 | 265 | 1.0 | 5.0 | 0.00 | 0.00 | 0.00 | 70 | 1013.7 |
| 20260905142004 | 88 | 266 | 1.0 | 4.0 | 0.00 | 0.00 | 0.00 | 73 | 1013.7 |
| 20260905141524 | 88 | 272 | 1.0 | 4.0 | 0.00 | 0.00 | 0.00 | 71 | 1013.6 |
| 20260905141024 | 88 | 279 | 1.0 | 3.0 | 0.00 | 0.00 | 0.00 | 74 | 1013.5 |
| 20260905140503 | 87 | 277 | 0.0 | 3.0 | 0.00 | 0.00 | 0.00 | 73 | 1013.5 |
| 20260905140004 | 88 | 271 | 1.0 | 4.0 | 0.00 | 0.00 | 0.00 | 71 | 1013.4 |
| 20260905135504 | 88 | 271 | 1.0 | 4.0 | 0.00 | 0.00 | 0.00 | 73 | 1013.3 |
| 20260905135004 | 89 | 153 | 0.0 | 3.0 | 0.00 | 0.00 | 0.00 | 70 | 1013.4 |
| 20260905134504 | 88 | 151 | 0.0 | 3.0 | 0.00 | 0.00 | 0.00 | 73 | 1013.5 |
| 20260905134024 | 88 | 130 | 0.0 | 3.0 | 0.00 | 0.00 | 0.00 | 74 | 1013.5 |
| 20260905133504 | 88 | 139 | 1.0 | 3.0 | 0.00 | 0.00 | 0.00 | 74 | 1013.5 |
| 20260905133003 | 88 | 159 | 1.0 | 4.0 | 0.00 | 0.00 | 0.00 | 75 | 1013.5 |
| 20260905132504 | 88 | 157 | 1.0 | 4.0 | 0.00 | 0.00 | 0.00 | 74 | 1013.5 |
| 20260905132004 | 87 | 142 | 2.0 | 4.0 | 0.00 | 0.00 | 0.00 | 74 | 1013.5 |
| 20260905131504 | 86 | 139 | 1.0 | 4.0 | 0.00 | 0.00 | 0.00 | 76 | 1013.6 |
| 20260905131025 | 87 | 150 | 1.0 | 4.0 | 0.00 | 0.00 | 0.00 | 77 | 1013.5 |
| 20260905130524 | 86 | 163 | 2.0 | 5.0 | 0.00 | 0.00 | 0.00 | 79 | 1013.6 |
| 20260905130004 | 86 | 166 | 2.0 | 5.0 | 0.00 | 0.00 | 0.00 | 80 | 1013.6 |
| 20260905125503 | 85 | 157 | 3.0 | 5.0 | 0.00 | 0.00 | 0.00 | 82 | 1013.6 |
| 20260905125025 | 84 | 150 | 3.0 | 5.0 | 0.00 | 0.00 | 0.00 | 83 | 1013.6 |
| 20260905124503 | 84 | 145 | 2.0 | 5.0 | 0.00 | 0.00 | 0.00 | 84 | 1013.6 |
| 20260905124004 | 83 | 143 | 2.0 | 5.0 | 0.00 | 0.00 | 0.00 | 85 | 1013.4 |
| 20260905123504 | 83 | 139 | 1.0 | 3.0 | 0.00 | 0.00 | 0.00 | 86 | 1013.3 |
| 20260905123004 | 82 | 136 | 1.0 | 2.0 | 0.00 | 0.00 | 0.00 | 87 | 1013.3 |
| 20260905122503 | 82 | 136 | 1.0 | 2.0 | 0.00 | 0.00 | 0.00 | 87 | 1013.3 |
| 20260905122004 | 82 | 136 | 1.0 | 3.0 | 0.00 | 0.00 | 0.00 | 88 | 1013.4 |
| 20260905121504 | 81 | 136 | 1.0 | 3.0 | 0.00 | 0.01 | 0.00 | 89 | 1013.5 |
| 20260905121004 | 81 | 0 | 0.0 | 0.0 | 0.00 | 0.01 | 0.00 | 89 | 1013.4 |
| 20260905120526 | 80 | 0 | 0.0 | 0.0 | 0.00 | 0.01 | 0.00 | 89 | 1013.3 |
| 20260905120004 | 80 | 0 | 0.0 | 0.0 | 0.00 | 0.03 | 0.00 | 89 | 1013.3 |
| 20260905115524 | 80 | 0 | 0.0 | 0.0 | 0.00 | 0.03 | 0.00 | 89 | 1013.4 |
| 20260905115003 | 80 | 0 | 0.0 | 0.0 | 0.00 | 0.03 | 0.00 | 89 | 1013.3 |
| 20260905114504 | 80 | 0 | 0.0 | 0.0 | 0.00 | 0.03 | 0.00 | 88 | 1013.3 |
| 20260905114003 | 79 | 136 | 0.0 | 1.0 | 0.00 | 0.03 | 0.00 | 88 | 1013.2 |
| 20260905113504 | 79 | 136 | 0.0 | 1.0 | 0.00 | 0.03 | 0.00 | 88 | 1013.1 |
| 20260905113004 | 79 | 136 | 0.0 | 1.0 | 0.00 | 0.03 | 0.00 | 88 | 1013.1 |
| 20260905112504 | 79 | 0 | 0.0 | 0.0 | 0.00 | 0.03 | 0.00 | 88 | 1013.0 |
| 20260905112004 | 79 | 0 | 0.0 | 0.0 | 0.00 | 0.03 | 0.00 | 88 | 1012.9 |
| 20260905111525 | 79 | 0 | 0.0 | 0.0 | 0.00 | 0.03 | 0.00 | 88 | 1012.8 |
| 20260905111024 | 79 | 0 | 0.0 | 0.0 | 0.00 | 0.03 | 0.00 | 88 | 1012.7 |
| 20260905110504 | 79 | 0 | 0.0 | 0.0 | 0.00 | 0.03 | 0.00 | 88 | 1012.7 |
| 20260905110004 | 79 | 136 | 0.0 | 1.0 | 0.00 | 0.03 | 0.00 | 88 | 1012.8 |
| 20260905105525 | 79 | 136 | 0.0 | 1.0 | 0.00 | 0.03 | 0.00 | 88 | 1012.7 |
| 20260905105025 | 79 | 136 | 0.0 | 1.0 | 0.00 | 0.03 | 0.00 | 88 | 1012.8 |
| 20260905104503 | 79 | 136 | 0.0 | 2.0 | 0.00 | 0.04 | 0.00 | 88 | 1012.7 |
| 20260905104004 | 79 | 136 | 0.0 | 2.0 | 0.00 | 0.04 | 0.00 | 88 | 1012.7 |
| 20260905103504 | 79 | 0 | 0.0 | 0.0 | 0.00 | 0.04 | 0.00 | 88 | 1012.7 |
| 20260905103024 | 79 | 0 | 0.0 | 0.0 | 0.00 | 0.04 | 0.00 | 88 | 1012.7 |
| 20260905102525 | 79 | 136 | 0.0 | 1.0 | 0.00 | 0.04 | 0.00 | 88 | 1012.7 |
| 20260905102004 | 79 | 136 | 0.0 | 1.0 | 0.00 | 0.04 | 0.00 | 88 | 1012.7 |
| 20260905101503 | 79 | 136 | 0.0 | 3.0 | 0.00 | 0.04 | 0.00 | 88 | 1012.6 |
| 20260905101003 | 79 | 93 | 0.0 | 3.0 | 0.00 | 0.04 | 0.00 | 88 | 1012.6 |
| 20260905100503 | 79 | 68 | 0.0 | 2.0 | 0.00 | 0.05 | 0.00 | 88 | 1012.5 |
| 20260905100004 | 79 | 65 | 0.0 | 1.0 | 0.00 | 0.06 | 0.00 | 88 | 1012.4 |
| 20260905095525 | 79 | 65 | 0.0 | 1.0 | 0.00 | 0.09 | 0.00 | 88 | 1012.3 |
| 20260905095004 | 79 | 65 | 0.0 | 2.0 | 0.00 | 0.11 | 0.00 | 88 | 1012.3 |
| 20260905094503 | 79 | 65 | 0.0 | 2.0 | 0.00 | 0.11 | 0.00 | 87 | 1012.3 |
| 20260905094004 | 79 | 65 | 0.0 | 1.0 | 0.00 | 0.11 | 0.00 | 87 | 1012.4 |
| 20260905093503 | 79 | 65 | 0.0 | 2.0 | 0.00 | 0.11 | 0.00 | 87 | 1012.4 |
| 20260905093004 | 79 | 65 | 0.0 | 2.0 | 0.00 | 0.11 | 0.00 | 87 | 1012.3 |
| 20260905092504 | 79 | 0 | 0.0 | 0.0 | 0.00 | 0.11 | 0.00 | 87 | 1012.3 |
| 20260905092003 | 79 | 65 | 0.0 | 1.0 | 0.00 | 0.11 | 0.00 | 87 | 1012.2 |
| 20260905091503 | 79 | 65 | 0.0 | 1.0 | 0.00 | 0.11 | 0.00 | 87 | 1012.2 |
| 20260905091004 | 79 | 65 | 0.0 | 1.0 | 0.00 | 0.11 | 0.00 | 87 | 1012.2 |
| 20260905090525 | 79 | 65 | 0.0 | 1.0 | 0.00 | 0.11 | 0.00 | 87 | 1012.2 |
| 20260905090004 | 79 | 65 | 0.0 | 1.0 | 0.00 | 0.11 | 0.00 | 87 | 1012.2 |
| 20260905085503 | 79 | 65 | 0.0 | 2.0 | 0.00 | 0.11 | 0.00 | 87 | 1012.2 |
| 20260905085004 | 79 | 65 | 0.0 | 2.0 | 0.00 | 0.11 | 0.00 | 87 | 1012.2 |
| 20260905084503 | 79 | 121 | 0.0 | 2.0 | 0.00 | 0.11 | 0.00 | 87 | 1012.2 |
| 20260905084024 | 79 | 121 | 0.0 | 2.0 | 0.00 | 0.11 | 0.00 | 87 | 1012.2 |
| 20260905083525 | 79 | 121 | 0.0 | 2.0 | 0.00 | 0.11 | 0.00 | 87 | 1012.2 |
| 20260905083004 | 79 | 121 | 0.0 | 2.0 | 0.00 | 0.11 | 0.00 | 87 | 1012.3 |
| 20260905082505 | 79 | 121 | 0.0 | 2.0 | 0.00 | 0.11 | 0.00 | 87 | 1012.3 |
| 20260905082025 | 79 | 121 | 0.0 | 2.0 | 0.00 | 0.11 | 0.00 | 87 | 1012.3 |
| 20260905081504 | 79 | 121 | 0.0 | 2.0 | 0.00 | 0.11 | 0.00 | 87 | 1012.2 |
| 20260905081004 | 79 | 121 | 1.0 | 3.0 | 0.00 | 0.11 | 0.00 | 87 | 1012.2 |
| 20260905080504 | 79 | 121 | 1.0 | 3.0 | 0.00 | 0.11 | 0.00 | 87 | 1012.2 |
| 20260905080025 | 80 | 121 | 1.0 | 2.0 | 0.00 | 0.11 | 0.00 | 86 | 1012.2 |
| 20260905075504 | 80 | 121 | 1.0 | 3.0 | 0.00 | 0.11 | 0.00 | 86 | 1012.2 |
| 20260905075004 | 80 | 121 | 0.0 | 3.0 | 0.00 | 0.11 | 0.00 | 86 | 1012.2 |
| 20260905074504 | 80 | 121 | 0.0 | 3.0 | 0.00 | 0.11 | 0.00 | 86 | 1012.2 |
| 20260905074003 | 80 | 121 | 0.0 | 3.0 | 0.00 | 0.11 | 0.00 | 86 | 1012.2 |
| 20260905073525 | 80 | 121 | 0.0 | 2.0 | 0.00 | 0.11 | 0.00 | 86 | 1012.3 |
| 20260905073004 | 80 | 0 | 0.0 | 0.0 | 0.00 | 0.11 | 0.00 | 86 | 1012.3 |
| 20260905072504 | 80 | 0 | 0.0 | 0.0 | 0.00 | 0.11 | 0.00 | 86 | 1012.2 |
| 20260905072024 | 80 | 0 | 0.0 | 0.0 | 0.00 | 0.11 | 0.00 | 86 | 1012.3 |
| 20260905071504 | 80 | 121 | 0.0 | 2.0 | 0.00 | 0.11 | 0.00 | 86 | 1012.3 |
| 20260905071025 | 80 | 121 | 0.0 | 2.0 | 0.00 | 0.11 | 0.00 | 86 | 1012.4 |
| 20260905070504 | 80 | 120 | 1.0 | 3.0 | 0.00 | 0.11 | 0.00 | 86 | 1012.3 |
| 20260905070004 | 80 | 119 | 0.0 | 3.0 | 0.00 | 0.11 | 0.00 | 86 | 1012.4 |
| 20260905065505 | 80 | 0 | 0.0 | 0.0 | 0.00 | 0.11 | 0.00 | 86 | 1012.5 |
| 20260905065004 | 80 | 0 | 0.0 | 0.0 | 0.00 | 0.11 | 0.00 | 86 | 1012.6 |
| 20260905064525 | 80 | 109 | 0.0 | 2.0 | 0.00 | 0.11 | 0.00 | 86 | 1012.5 |
| 20260905064004 | 80 | 109 | 0.0 | 2.0 | 0.00 | 0.11 | 0.00 | 86 | 1012.6 |
| 20260905063503 | 80 | 110 | 0.0 | 2.0 | 0.00 | 0.11 | 0.00 | 86 | 1012.7 |
| 20260905063003 | 81 | 101 | 1.0 | 3.0 | 0.00 | 0.11 | 0.00 | 86 | 1012.7 |
| 20260905062504 | 81 | 93 | 1.0 | 3.0 | 0.00 | 0.11 | 0.00 | 86 | 1012.7 |
| 20260905062004 | 81 | 88 | 0.0 | 2.0 | 0.00 | 0.11 | 0.00 | 86 | 1012.7 |
| 20260905061504 | 81 | 96 | 0.0 | 4.0 | 0.00 | 0.11 | 0.00 | 86 | 1012.7 |
| 20260905061003 | 81 | 106 | 1.0 | 4.0 | 0.00 | 0.11 | 0.00 | 86 | 1012.8 |
| 20260905060503 | 81 | 105 | 1.0 | 3.0 | 0.00 | 0.11 | 0.00 | 85 | 1012.8 |
| 20260905060004 | 81 | 100 | 0.0 | 2.0 | 0.00 | 0.11 | 0.00 | 85 | 1012.8 |
| 20260905055504 | 82 | 108 | 0.0 | 2.0 | 0.00 | 0.11 | 0.00 | 85 | 1012.8 |
| 20260905055004 | 82 | 90 | 1.0 | 3.0 | 0.00 | 0.11 | 0.00 | 85 | 1012.9 |
| 20260905054504 | 82 | 74 | 0.0 | 3.0 | 0.00 | 0.11 | 0.00 | 85 | 1013.0 |
| 20260905054003 | 82 | 74 | 0.0 | 2.0 | 0.00 | 0.11 | 0.00 | 85 | 1013.1 |
| 20260905053503 | 82 | 78 | 0.0 | 2.0 | 0.00 | 0.11 | 0.00 | 85 | 1013.0 |
| 20260905053004 | 82 | 89 | 0.0 | 3.0 | 0.00 | 0.11 | 0.00 | 85 | 1013.0 |
| 20260905052504 | 82 | 80 | 0.0 | 3.0 | 0.00 | 0.11 | 0.00 | 85 | 1013.2 |
| 20260905052025 | 82 | 65 | 0.0 | 2.0 | 0.00 | 0.11 | 0.00 | 84 | 1013.2 |
| 20260905051503 | 82 | 65 | 0.0 | 2.0 | 0.00 | 0.11 | 0.00 | 84 | 1013.2 |
| 20260905051004 | 82 | 65 | 0.0 | 2.0 | 0.00 | 0.11 | 0.00 | 84 | 1013.2 |
| 20260905050503 | 83 | 0 | 0.0 | 0.0 | 0.00 | 0.11 | 0.00 | 84 | 1013.3 |
| 20260905050004 | 83 | 0 | 0.0 | 0.0 | 0.00 | 0.11 | 0.00 | 84 | 1013.3 |
| 20260905045504 | 83 | 0 | 0.0 | 0.0 | 0.00 | 0.11 | 0.00 | 84 | 1013.3 |
| 20260905045004 | 83 | 277 | 0.0 | 1.0 | 0.00 | 0.11 | 0.00 | 83 | 1013.4 |
| 20260905044504 | 83 | 277 | 0.0 | 1.0 | 0.00 | 0.11 | 0.00 | 83 | 1013.4 |
| 20260905044025 | 83 | 277 | 0.0 | 1.0 | 0.00 | 0.11 | 0.00 | 83 | 1013.4 |
| 20260905043525 | 83 | 277 | 0.0 | 1.0 | 0.00 | 0.11 | 0.00 | 83 | 1013.4 |
| 20260905043003 | 83 | 277 | 0.0 | 1.0 | 0.00 | 0.11 | 0.00 | 82 | 1013.5 |
| 20260905042524 | 83 | 0 | 0.0 | 0.0 | 0.00 | 0.11 | 0.00 | 82 | 1013.5 |
| 20260905042004 | 83 | 277 | 0.0 | 1.0 | 0.00 | 0.11 | 0.00 | 82 | 1013.4 |
| 20260905041504 | 83 | 277 | 0.0 | 1.0 | 0.00 | 0.11 | 0.00 | 81 | 1013.4 |
| 20260905041004 | 83 | 277 | 0.0 | 1.0 | 0.00 | 0.11 | 0.00 | 81 | 1013.3 |
| 20260905040525 | 83 | 277 | 0.0 | 1.0 | 0.00 | 0.11 | 0.00 | 81 | 1013.3 |
| 20260905040004 | 83 | 0 | 0.0 | 0.0 | 0.00 | 0.11 | 0.00 | 81 | 1013.3 |
| 20260905035504 | 83 | 0 | 0.0 | 0.0 | 0.00 | 0.11 | 0.11 | 81 | 1013.3 |
| 20260905035004 | 83 | 0 | 0.0 | 0.0 | 0.00 | 0.11 | 0.11 | 81 | 1013.3 |
| 20260905034526 | 83 | 0 | 0.0 | 0.0 | 0.00 | 0.11 | 0.11 | 81 | 1013.3 |
| 20260905034003 | 84 | 0 | 0.0 | 0.0 | 0.00 | 0.11 | 0.11 | 80 | 1013.4 |
| 20260905033503 | 84 | 0 | 0.0 | 0.0 | 0.00 | 0.11 | 0.11 | 80 | 1013.5 |
| 20260905033004 | 84 | 0 | 0.0 | 0.0 | 0.00 | 0.11 | 0.11 | 80 | 1013.6 |
| 20260905032504 | 84 | 0 | 0.0 | 0.0 | 0.00 | 0.11 | 0.11 | 80 | 1013.6 |
| 20260905032003 | 84 | 0 | 0.0 | 0.0 | 0.00 | 0.11 | 0.11 | 80 | 1013.6 |
| 20260905031525 | 84 | 0 | 0.0 | 0.0 | 0.00 | 0.11 | 0.11 | 80 | 1013.7 |
| 20260905031024 | 84 | 0 | 0.0 | 0.0 | 0.00 | 0.11 | 0.11 | 80 | 1013.8 |
| 20260905030503 | 84 | 0 | 0.0 | 0.0 | 0.00 | 0.11 | 0.11 | 79 | 1013.9 |
| 20260905030004 | 84 | 0 | 0.0 | 0.0 | 0.00 | 0.11 | 0.11 | 79 | 1013.9 |
| 20260905025504 | 84 | 0 | 0.0 | 0.0 | 0.00 | 0.11 | 0.11 | 79 | 1013.9 |
| 20260905025004 | 84 | 0 | 0.0 | 0.0 | 0.00 | 0.11 | 0.11 | 78 | 1013.8 |
| 20260905024505 | 84 | 0 | 0.0 | 0.0 | 0.00 | 0.11 | 0.11 | 78 | 1013.8 |
| 20260905024003 | 84 | 0 | 0.0 | 0.0 | 0.00 | 0.11 | 0.11 | 78 | 1013.9 |
| 20260905023503 | 84 | 0 | 0.0 | 0.0 | 0.00 | 0.11 | 0.11 | 78 | 1014.1 |
| 20260905023024 | 84 | 0 | 0.0 | 0.0 | 0.00 | 0.11 | 0.11 | 78 | 1014.1 |
| 20260905022504 | 84 | 0 | 0.0 | 0.0 | 0.00 | 0.11 | 0.11 | 77 | 1013.9 |
| 20260905022003 | 84 | 0 | 0.0 | 0.0 | 0.00 | 0.11 | 0.11 | 77 | 1013.8 |
| 20260905021504 | 84 | 0 | 0.0 | 0.0 | 0.00 | 0.11 | 0.11 | 77 | 1013.8 |
| 20260905021003 | 85 | 0 | 0.0 | 0.0 | 0.00 | 0.11 | 0.11 | 77 | 1013.8 |
| 20260905020525 | 85 | 0 | 0.0 | 0.0 | 0.00 | 0.11 | 0.11 | 77 | 1013.9 |
| 20260905020004 | 85 | 0 | 0.0 | 0.0 | 0.00 | 0.11 | 0.11 | 76 | 1013.7 |
| 20260905015503 | 85 | 0 | 0.0 | 0.0 | 0.00 | 0.11 | 0.11 | 76 | 1013.8 |
| 20260905015004 | 85 | 0 | 0.0 | 0.0 | 0.00 | 0.11 | 0.11 | 76 | 1013.9 |
| 20260905014503 | 85 | 0 | 0.0 | 0.0 | 0.00 | 0.11 | 0.11 | 76 | 1013.8 |
| 20260905014004 | 85 | 0 | 0.0 | 0.0 | 0.00 | 0.11 | 0.11 | 76 | 1013.8 |
| 20260905013504 | 85 | 0 | 0.0 | 0.0 | 0.00 | 0.11 | 0.11 | 75 | 1013.7 |
| 20260905013025 | 86 | 0 | 0.0 | 0.0 | 0.00 | 0.11 | 0.11 | 75 | 1013.7 |
| 20260905012504 | 86 | 0 | 0.0 | 0.0 | 0.00 | 0.11 | 0.11 | 75 | 1013.7 |
| 20260905012031 | 86 | 0 | 0.0 | 0.0 | 0.00 | 0.11 | 0.11 | 75 | 1013.8 |
| 20260905011504 | 86 | 0 | 0.0 | 0.0 | 0.00 | 0.11 | 0.11 | 75 | 1013.7 |
| 20260905011004 | 86 | 277 | 0.0 | 1.0 | 0.00 | 0.11 | 0.11 | 75 | 1013.7 |
| 20260905010524 | 86 | 277 | 0.0 | 1.0 | 0.00 | 0.11 | 0.11 | 75 | 1013.7 |
| 20260905010004 | 86 | 277 | 0.0 | 1.0 | 0.00 | 0.11 | 0.11 | 75 | 1013.7 |
| 20260905005503 | 86 | 277 | 0.0 | 2.0 | 0.00 | 0.11 | 0.11 | 75 | 1013.7 |
| 20260905005004 | 86 | 273 | 1.0 | 4.0 | 0.00 | 0.11 | 0.11 | 75 | 1013.6 |
| 20260905004525 | 86 | 276 | 2.0 | 5.0 | 0.00 | 0.11 | 0.11 | 75 | 1013.6 |
| 20260905004003 | 86 | 279 | 3.0 | 6.0 | 0.00 | 0.11 | 0.11 | 75 | 1013.5 |
| 20260905003503 | 86 | 286 | 2.0 | 6.0 | 0.00 | 0.11 | 0.11 | 75 | 1013.4 |
| 20260905003004 | 86 | 292 | 2.0 | 3.0 | 0.00 | 0.11 | 0.11 | 75 | 1013.3 |
| 20260905002503 | 86 | 280 | 2.0 | 4.0 | 0.00 | 0.11 | 0.11 | 75 | 1013.3 |
| 20260905002003 | 86 | 283 | 2.0 | 4.0 | 0.00 | 0.11 | 0.11 | 74 | 1013.2 |
| 20260905001504 | 87 | 294 | 2.0 | 5.0 | 0.00 | 0.11 | 0.11 | 75 | 1013.3 |
| 20260905001004 | 87 | 284 | 3.0 | 6.0 | 0.00 | 0.11 | 0.11 | 74 | 1013.3 |
| 20260905000503 | 87 | 276 | 4.0 | 6.0 | 0.00 | 0.11 | 0.11 | 74 | 1013.2 |
| 20260905000004 | 87 | 276 | 2.0 | 6.0 | 0.00 | 0.11 | 0.11 | 74 | 1013.1 |
| 20260904235503 | 87 | 275 | 2.0 | 5.0 | 0.00 | 0.11 | 0.11 | 73 | 1013.0 |
| 20260904235004 | 87 | 273 | 3.0 | 5.0 | 0.00 | 0.11 | 0.11 | 73 | 1012.9 |
| 20260904234503 | 87 | 270 | 3.0 | 6.0 | 0.00 | 0.11 | 0.11 | 73 | 1012.9 |
| 20260904234004 | 88 | 269 | 2.0 | 6.0 | 0.00 | 0.11 | 0.11 | 72 | 1012.8 |
| 20260904233503 | 88 | 273 | 1.0 | 5.0 | 0.00 | 0.11 | 0.11 | 72 | 1012.8 |
| 20260904233004 | 88 | 270 | 2.0 | 5.0 | 0.00 | 0.11 | 0.11 | 72 | 1012.8 |
| 20260904232524 | 88 | 271 | 2.0 | 5.0 | 0.00 | 0.11 | 0.11 | 72 | 1012.7 |
| 20260904232004 | 88 | 271 | 3.0 | 6.0 | 0.00 | 0.11 | 0.11 | 72 | 1012.7 |
| 20260904231504 | 88 | 272 | 3.0 | 6.0 | 0.00 | 0.11 | 0.11 | 72 | 1012.7 |
| 20260904231024 | 88 | 270 | 2.0 | 6.0 | 0.00 | 0.11 | 0.11 | 71 | 1012.7 |
| 20260904230504 | 88 | 268 | 2.0 | 6.0 | 0.00 | 0.11 | 0.11 | 71 | 1012.7 |
| 20260904230004 | 89 | 271 | 3.0 | 10.0 | 0.00 | 0.11 | 0.11 | 70 | 1012.7 |
| 20260904225503 | 89 | 271 | 3.0 | 10.0 | 0.00 | 0.11 | 0.11 | 69 | 1012.6 |
| 20260904225024 | 89 | 270 | 2.0 | 6.0 | 0.00 | 0.11 | 0.11 | 69 | 1012.6 |
| 20260904224503 | 89 | 262 | 2.0 | 6.0 | 0.00 | 0.11 | 0.11 | 70 | 1012.7 |
| 20260904224004 | 89 | 267 | 2.0 | 7.0 | 0.00 | 0.11 | 0.11 | 71 | 1012.7 |
| 20260904223504 | 89 | 277 | 3.0 | 7.0 | 0.00 | 0.11 | 0.11 | 71 | 1012.7 |
| 20260904223003 | 89 | 272 | 3.0 | 7.0 | 0.00 | 0.11 | 0.11 | 72 | 1012.7 |
| 20260904222504 | 89 | 263 | 2.0 | 7.0 | 0.00 | 0.11 | 0.11 | 72 | 1012.7 |
| 20260904222003 | 89 | 265 | 3.0 | 7.0 | 0.00 | 0.11 | 0.11 | 72 | 1012.5 |
| 20260904221504 | 89 | 269 | 2.0 | 10.0 | 0.00 | 0.11 | 0.11 | 73 | 1012.5 |
| 20260904221003 | 89 | 260 | 1.0 | 10.0 | 0.00 | 0.11 | 0.11 | 71 | 1012.5 |
| 20260904220503 | 90 | 242 | 2.0 | 7.0 | 0.00 | 0.11 | 0.11 | 71 | 1012.5 |
| 20260904220004 | 90 | 262 | 2.0 | 7.0 | 0.00 | 0.11 | 0.11 | 71 | 1012.5 |
| 20260904215503 | 90 | 261 | 2.0 | 7.0 | 0.00 | 0.11 | 0.11 | 70 | 1012.4 |
| 20260904215004 | 91 | 269 | 3.0 | 8.0 | 0.00 | 0.11 | 0.11 | 70 | 1012.6 |
| 20260904214504 | 90 | 270 | 3.0 | 8.0 | 0.00 | 0.11 | 0.11 | 70 | 1012.5 |
| 20260904214025 | 91 | 260 | 2.0 | 5.0 | 0.00 | 0.11 | 0.11 | 69 | 1012.6 |
| 20260904213503 | 91 | 261 | 2.0 | 7.0 | 0.00 | 0.11 | 0.11 | 70 | 1012.6 |
| 20260904213004 | 91 | 260 | 2.0 | 7.0 | 0.00 | 0.11 | 0.11 | 70 | 1012.6 |
| 20260904212504 | 91 | 252 | 3.0 | 10.0 | 0.00 | 0.11 | 0.11 | 69 | 1012.5 |
| 20260904212003 | 91 | 267 | 4.0 | 10.0 | 0.00 | 0.11 | 0.11 | 70 | 1012.5 |
| 20260904211504 | 90 | 272 | 3.0 | 10.0 | 0.00 | 0.11 | 0.11 | 69 | 1012.5 |
| 20260904211004 | 92 | 272 | 2.0 | 7.0 | 0.00 | 0.11 | 0.11 | 69 | 1012.4 |
| 20260904210503 | 91 | 263 | 3.0 | 9.0 | 0.00 | 0.11 | 0.11 | 71 | 1012.4 |
| 20260904210004 | 92 | 264 | 3.0 | 11.0 | 0.00 | 0.11 | 0.11 | 70 | 1012.3 |
| 20260904205503 | 91 | 270 | 3.0 | 11.0 | 0.00 | 0.11 | 0.11 | 68 | 1012.3 |
| 20260904205025 | 92 | 271 | 3.0 | 9.0 | 0.00 | 0.11 | 0.11 | 70 | 1012.2 |
| 20260904204504 | 91 | 271 | 4.0 | 10.0 | 0.00 | 0.11 | 0.11 | 69 | 1012.2 |
| 20260904204004 | 92 | 267 | 3.0 | 10.0 | 0.00 | 0.11 | 0.11 | 66 | 1012.3 |
| 20260904203503 | 92 | 266 | 3.0 | 7.0 | 0.00 | 0.11 | 0.11 | 69 | 1012.5 |
| 20260904203004 | 92 | 265 | 2.0 | 7.0 | 0.00 | 0.11 | 0.11 | 68 | 1012.7 |